Location: Usti nad Labem
(50.6670°N, 14.0330°E)
Time: 02:20:39
(UTC+02:00)

ISS - Pass Details

Date: 24 April 2025
Orbit: 416 x 420 km, 51.6° (Epoch: 16 May)

Event Time Altitude Azimuth Distance (km) Brightness Sun altitude
Exits shadow 04:30:39 16° 201° (SSW) 1,160 -2.0 -11.9°
Maximum altitude 04:32:40 30° 148° (SSE) 776 -2.5 -11.6°
Drops below altitude 10° 04:35:39 10° 85° (E) 1,497 0.0 -11.3°
Sets 04:37:54 0° 75° (ENE) 2,364 1.5 -11.0°
